STARLINK-2258

decayed
NORAD ID: 47860 Int'l Des: 2021-021 Owner: SPXS Country: US Constellation: starlink
LEOCIRCULAR
Group

About STARLINK-2258

Description loading...

Altitude History

Altitude vs Time

uPlot chart will show altitude changes over time

Two-Line Element Set

1 47860U 21021A 25029.88846302 .10405965 12241-4 91442-3 0 9995
2 47860 53.0321 262.9373 0007025 229.9433 204.1351 16.38361482215140
Epoch: Jan 29, 2025 • Age: 5484 hours

Current Status

Position data unavailable
Launch Date Mar 14, 2021
Age 4.5 years
Decay Date Jan 30, 2025
Type internet

Technical Details

Classification Payload
Mass 260.00 kg
Dry Mass 248.00 kg
Total Mass 260.00 kg
Length 0.20 m
Diameter 2.80 m
Span 9.00 m
Shape Box + pan
Manufacturer SPXS
Bus Type Starlink
Phase Status Unknown Transfer Status
Owner/State SPXS/US

Large Constellations

Loading constellations...